Tracking 35275 objects as of 8-Sep-2026
HD Live streaming from Space Station
objects crossing your sky now

STARLINK-32834

Track STARLINK-32834 now!
10-day predictions
STARLINK-32834 is classified as:


NORAD ID: 62875
Int'l Code: 2025-022X
Launch date: February 1, 2025
Source: United States (US)
Launch site: AIR FORCE WESTERN TEST RANGE (AFWTR)
Your satellite tracking list
Your tracking list is empty




NASA's NSSDC Master Catalog

Two Line Element Set (TLE):
1 62875U 25022X   26251.58264437  .00023252  00000-0  69669-3 0  9997
2 62875  53.1595 357.1332 0001096  66.7723 293.3395 15.34422453 89946
Source of the keplerian elements: AFSPC